[[{"header":{"parameterUnit":"m.s-1","parameterCategory":1,"la1":30.2991,"la2":30.254,"lo1":-89.0895,"lo2":-89.0444,"dy":0.0017,"dx":0.0017,"nx":28,"ny":28,"refTime":"2024-03-09T09:00:00:Z","depth":0,"parameterNumber":2,"parameterNumberName":"U-component_of_WINDS"},"data":[0,0,0,0,0,0,0,0,0,0,0,0,0,0,0,0,0,0,0,0,0,0,0,0,0,0,0,0,0,0,0,0,0,0,0,0,0,0,0,0,0,0,0,0,0,0,0,0,0,0,0,0,0,0,0,0,0,0,-0.0333,-0.0333,0,-0.0339,-0.0339,-0.0339,-0.0305,-0.0304,-0.0303,-0.0302,-0.0312,-0.0313,-0.0314,0,0,0,0,0,0,0,0,0,0,0,0,0,-0.0296,-0.0297,-0.0333,-0.0333,-0.0334,-0.0339,-0.0339,-0.0339,-0.0305,-0.0304,-0.0303,-0.0302,-0.0311,-0.0313,-0.0314,0,0,0,0,0,0,0,0,0,0,0,0,0,-0.0308,-0.0297,-0.0333,-0.0317,-0.0316,-0.0339,-0.0339,-0.0339,-0.0305,-0.0304,-0.0302,-0.0301,-0.0311,-0.0312,-0.0314,-0.0355,0,0,-0.0319,-0.032,0,0,0,0,0,0,0,0,-0.0307,-0.0309,-0.0319,-0.0318,-0.0317,-0.032,-0.0329,-0.0345,-0.0306,-0.0309,-0.0302,-0.03,-0.0316,-0.0317,-0.0321,-0.0355,-0.0355,-0.032,-0.0321,-0.0321,-0.0322,0,0,0,0,0,0,0,-0.0306,-0.0309,-0.0336,-0.032,-0.0318,-0.031,-0.0311,-0.0332,-0.0321,-0.0309,-0.0307,-0.0307,-0.0315,-0.032,-0.0321,-0.0355,-0.032,-0.0321,-0.0322,-0.0323,-0.0423,-0.0425,0,0,0,0,0,0,-0.0307,-0.0308,-0.0336,-0.0336,-0.0308,-0.0312,-0.0312,-0.032,-0.0321,-0.0319,-0.0309,-0.0306,-0.0317,-0.0319,-0.0322,-0.037,-0.0321,-0.0323,-0.0324,-0.0421,-0.0423,-0.0425,0,0,0,0,0,0,-0.0307,-0.031,-0.0335,-0.0321,-0.0324,-0.0314,-0.0324,-0.0321,-0.0326,-0.032,-0.0318,-0.0316,-0.0316,-0.0319,-0.0346,-0.037,-0.0324,-0.0325,-0.042,-0.0422,-0.0424,-0.0466,0,0,0,0,0,0,-0.0306,-0.031,-0.0325,-0.0322,-0.0325,-0.036,-0.0325,-0.0322,-0.0329,-0.0325,-0.0326,-0.0325,-0.0315,-0.0344,-0.0348,-0.0371,-0.0327,-0.0417,-0.0421,-0.0423,-0.0463,-0.047,-0.0476,0,0,0,0,0,-0.0305,-0.0337,-0.0326,-0.0329,-0.0343,-0.0361,-0.0363,-0.035,-0.0331,-0.0346,-0.0342,-0.0325,-0.0366,-0.0347,-0.0352,-0.0375,-0.0416,-0.042,-0.0423,-0.046,-0.0468,-0.0476,0,0,0,0,0,0,-0.0344,-0.0336,-0.0324,-0.0356,-0.0359,-0.0355,-0.0374,-0.0359,-0.0369,-0.0365,-0.0349,-0.035,-0.038,-0.038,-0.0359,-0.0415,-0.0388,-0.0392,-0.0414,-0.0422,-0.0429,-0.0429,-0.0328,0,0,0,0,0,-0.0356,-0.0371,-0.0363,-0.0393,-0.0395,-0.0384,-0.0391,-0.0381,-0.0384,-0.0386,-0.0384,-0.0388,-0.0402,-0.0412,-0.0424,-0.0462,-0.0462,-0.048,-0.0487,-0.0492,-0.0497,-0.0518,-0.0526,-0.0437,-0.0437,-0.0437,0,0,-0.0383,-0.038,-0.039,-0.0401,-0.0402,-0.0418,-0.0386,-0.0404,-0.0416,-0.0389,-0.0415,-0.0413,-0.0417,-0.045,-0.0465,-0.0451,-0.0521,-0.0497,-0.0501,-0.0503,-0.0523,-0.0531,-0.0539,-0.0439,-0.0439,-0.0439,0,0,-0.0439,-0.0438,-0.0462,-0.0464,-0.0465,-0.0458,-0.0464,-0.0461,-0.0459,-0.0484,-0.0464,-0.0479,-0.0502,-0.0506,-0.0512,-0.0568,-0.0553,-0.0572,-0.0607,-0.0628,-0.0635,-0.0641,-0.0663,-0.0671,-0.0577,-0.0577,-0.0577,0,-0.0472,-0.0495,-0.0477,-0.0497,-0.0503,-0.0476,-0.0502,-0.0505,-0.0511,-0.0516,-0.05,-0.0529,-0.053,-0.0564,-0.0577,-0.0582,-0.0589,-0.0573,-0.0635,-0.0641,-0.0647,-0.0667,-0.0675,-0.0579,-0.0579,-0.0579,-0.0578,0,-0.0536,-0.0551,-0.0571,-0.0577,-0.0584,-0.0607,-0.0594,-0.0604,-0.0592,-0.0586,-0.0613,-0.0612,-0.0624,-0.0631,-0.062,-0.0664,-0.0655,-0.0637,-0.061,-0.0658,-0.0677,-0.0685,-0.0583,-0.0582,-0.0581,-0.0581,0,0,-0.062,-0.0614,-0.0622,-0.0624,-0.0623,-0.0636,-0.0657,-0.0667,-0.0677,-0.0681,-0.07,-0.072,-0.0703,-0.0709,-0.0698,-0.0716,-0.0762,-0.0696,-0.0695,-0.071,-0.0812,-0.0827,-0.0836,-0.0751,-0.0752,-0.0754,-0.0812,0,-0.0676,-0.0712,-0.0696,-0.0734,-0.0749,-0.0724,-0.0743,-0.0745,-0.074,-0.0752,-0.0747,-0.0762,-0.0738,-0.0741,-0.0757,-0.0753,-0.0783,-0.0748,-0.077,-0.0771,-0.0772,-0.0846,-0.0862,-0.0917,-0.0819,-0.082,-0.0821,0,-0.0748,-0.0754,-0.0793,-0.0789,-0.0795,-0.0812,-0.0821,-0.0832,-0.0834,-0.0829,-0.0835,-0.082,-0.0842,-0.0813,-0.0843,-0.082,-0.0828,-0.0827,-0.0829,-0.0832,-0.0801,-0.0854,-0.0934,-0.0944,-0.0832,-0.0832,-0.0831,0,-0.0807,-0.0826,-0.0851,-0.0854,-0.085,-0.0862,-0.0862,-0.0862,-0.0869,-0.0876,-0.0881,-0.0891,-0.0897,-0.0906,-0.0894,-0.0874,-0.0927,-0.0896,-0.0925,-0.0925,-0.0939,-0.0939,-0.1025,-0.094,-0.094,-0.094,-0.094,0,-0.0874,-0.0899,-0.0878,-0.0895,-0.0922,-0.0904,-0.0932,-0.0929,-0.0929,-0.0945,-0.0922,-0.0938,-0.092,-0.0935,-0.0925,-0.0953,-0.0955,-0.0953,-0.0951,-0.0956,-0.0957,-0.0963,-0.096,-0.0942,-0.0942,-0.0941,-0.0941,0,-0.0947,-0.0933,-0.096,-0.0953,-0.0952,-0.0973,-0.0968,-0.0983,-0.0975,-0.0996,-0.0999,-0.0988,-0.1003,-0.0992,-0.1007,-0.1001,-0.1037,-0.1029,-0.1037,-0.1035,-0.1065,-0.1063,-0.116,-0.1172,-0.1078,-0.1079,-0.1079,0,-0.0991,-0.101,-0.1004,-0.1013,-0.1013,-0.1027,-0.1034,-0.1016,-0.1024,-0.1027,-0.1042,-0.1055,-0.1065,-0.1091,-0.1085,-0.1096,-0.1089,-0.1122,-0.1091,-0.1096,-0.1092,-0.1092,-0.1095,-0.1129,-0.113,-0.1131,-0.1132,0,-0.1072,-0.1064,-0.1074,-0.1082,-0.1091,-0.1096,-0.11,-0.1109,-0.109,-0.1101,-0.1116,-0.1123,-0.1138,-0.1152,-0.1161,-0.1161,-0.1145,-0.1141,-0.1149,-0.1156,-0.1161,-0.1161,-0.1057,-0.114,-0.1139,-0.1139,-0.1138,-0.1138,-0.1134,-0.1149,-0.1148,-0.116,-0.1161,-0.1165,-0.1179,-0.1172,-0.1184,-0.1194,-0.1182,-0.1201,-0.1202,-0.1212,-0.1214,-0.1229,-0.1215,-0.1226,-0.1229,-0.1232,-0.1238,-0.1156,-0.123,-0.123,-0.1229,-0.1229,-0.1229,0,-0.1215,-0.1212,-0.1224,-0.1229,-0.1239,-0.122,-0.1223,-0.1233,-0.1249,-0.125,-0.126,-0.1277,-0.129,-0.1284,-0.1295,-0.1308,-0.1301,-0.1312,-0.1313,-0.1313,-0.1248,-0.1241,-0.1318,-0.1318,-0.1318,-0.1318,-0.1318,-0.1318,-0.1259,-0.1285,-0.1277,-0.1303,-0.13,-0.1317,-0.1321,-0.1325,-0.1326,-0.1346,-0.1356,-0.1351,-0.135,-0.1361,-0.1372,-0.137,-0.1377,-0.1391,-0.1387,-0.1326,-0.1318,-0.1309,-0.1303,-0.1392,-0.1392,-0.1451,-0.1451,-0.1452]},{"header":{"parameterUnit":"m.s-1","parameterCategory":1,"la1":30.2991,"la2":30.254,"lo1":-89.0895,"lo2":-89.0444,"dy":0.0017,"dx":0.0017,"nx":28,"ny":28,"refTime":"2024-03-09T09:00:00:Z","depth":0,"parameterNumber":3,"parameterNumberName":"V-component_of_WINDS"},"data":[0,0,0,0,0,0,0,0,0,0,0,0,0,0,0,0,0,0,0,0,0,0,0,0,0,0,0,0,0,0,0,0,0,0,0,0,0,0,0,0,0,0,0,0,0,0,0,0,0,0,0,0,0,0,0,0,0,0,-4.8229,-4.823,0,-4.8321,-4.8322,-4.8323,-4.8238,-4.8235,-4.8231,-4.8228,-4.8322,-4.8327,-4.8333,0,0,0,0,0,0,0,0,0,0,0,0,0,-4.7978,-4.7983,-4.8229,-4.823,-4.8231,-4.8321,-4.8322,-4.8323,-4.8239,-4.8235,-4.8231,-4.8227,-4.832,-4.8326,-4.8333,0,0,0,0,0,0,0,0,0,0,0,0,0,-4.808,-4.7985,-4.8228,-4.82,-4.8198,-4.8321,-4.8322,-4.8324,-4.824,-4.8235,-4.823,-4.8225,-4.8318,-4.8326,-4.8334,-4.8489,0,0,-4.836,-4.8364,0,0,0,0,0,0,0,0,-4.8075,-4.809,-4.8203,-4.8202,-4.82,-4.8263,-4.8268,-4.8379,-4.8241,-4.8224,-4.8228,-4.8222,-4.8306,-4.8315,-4.8344,-4.8494,-4.8498,-4.8361,-4.8366,-4.837,-4.8372,0,0,0,0,0,0,0,-4.8068,-4.8085,-4.8265,-4.8204,-4.8203,-4.8182,-4.8191,-4.8289,-4.8293,-4.8225,-4.8219,-4.8231,-4.8304,-4.8336,-4.8345,-4.8499,-4.8361,-4.8368,-4.8374,-4.8377,-4.8782,-4.8787,0,0,0,0,0,0,-4.8064,-4.808,-4.8262,-4.8268,-4.8124,-4.8191,-4.82,-4.8248,-4.8291,-4.8293,-4.8236,-4.8227,-4.8324,-4.8336,-4.8348,-4.8534,-4.837,-4.8378,-4.8383,-4.8776,-4.8783,-4.8789,0,0,0,0,0,0,-4.8059,-4.8081,-4.8258,-4.8172,-4.8193,-4.82,-4.8254,-4.8252,-4.8284,-4.8299,-4.8299,-4.8267,-4.832,-4.8336,-4.8455,-4.8536,-4.8381,-4.8389,-4.877,-4.8779,-4.8786,-4.8906,0,0,0,0,0,0,-4.8052,-4.808,-4.8139,-4.8174,-4.8198,-4.8365,-4.8259,-4.8258,-4.8299,-4.8288,-4.8329,-4.8331,-4.8317,-4.8443,-4.8464,-4.8545,-4.8396,-4.8763,-4.8774,-4.8784,-4.8895,-4.8918,-4.8937,0,0,0,0,0,-4.8043,-4.8169,-4.8142,-4.8165,-4.8273,-4.8369,-4.8383,-4.8366,-4.8306,-4.8365,-4.8375,-4.8329,-4.8524,-4.8456,-4.8479,-4.8564,-4.8757,-4.8771,-4.8783,-4.8886,-4.8913,-4.8937,0,0,0,0,0,0,-4.8142,-4.8173,-4.8144,-4.8284,-4.8325,-4.8355,-4.843,-4.8395,-4.8453,-4.8441,-4.8417,-4.8427,-4.8553,-4.8569,-4.8494,-4.8716,-4.8631,-4.8649,-4.8701,-4.8728,-4.8748,-4.8742,-4.8403,0,0,0,0,0,-4.818,-4.8256,-4.8279,-4.84,-4.8422,-4.8423,-4.8464,-4.8447,-4.8488,-4.8505,-4.8524,-4.8565,-4.8635,-4.8682,-4.8747,-4.8897,-4.8905,-4.8966,-4.8987,-4.9004,-4.9021,-4.9102,-4.913,-4.8831,-4.8831,-4.8831,0,0,-4.8259,-4.8286,-4.8335,-4.8421,-4.845,-4.853,-4.8438,-4.8526,-4.8585,-4.8518,-4.8632,-4.8647,-4.8691,-4.8827,-4.8887,-4.8845,-4.9105,-4.9021,-4.9034,-4.9041,-4.9118,-4.9146,-4.9171,-4.884,-4.8838,-4.8837,0,0,-4.8445,-4.8473,-4.8578,-4.8609,-4.8655,-4.8655,-4.868,-4.8716,-4.8724,-4.8838,-4.879,-4.8859,-4.898,-4.9014,-4.9047,-4.9247,-4.9207,-4.9268,-4.9379,-4.9459,-4.9482,-4.9503,-4.9575,-4.9602,-4.9284,-4.9285,-4.9285,0,-4.8538,-4.8657,-4.8636,-4.8728,-4.8767,-4.8711,-4.8818,-4.8849,-4.8914,-4.8943,-4.8894,-4.9046,-4.9071,-4.9215,-4.9263,-4.9292,-4.932,-4.9265,-4.948,-4.9501,-4.952,-4.9589,-4.9616,-4.9292,-4.9291,-4.929,-4.929,0,-4.877,-4.8853,-4.8932,-4.8997,-4.9045,-4.9144,-4.9138,-4.9189,-4.9168,-4.9173,-4.929,-4.9319,-4.939,-4.9422,-4.9402,-4.9563,-4.9535,-4.9484,-4.9398,-4.9556,-4.9621,-4.9647,-4.9302,-4.93,-4.9298,-4.9296,0,0,-4.9021,-4.9074,-4.9103,-4.9133,-4.918,-4.9243,-4.9339,-4.9409,-4.9454,-4.9501,-4.9582,-4.9686,-4.9639,-4.9677,-4.966,-4.973,-4.9888,-4.967,-4.9671,-4.9711,-5.0068,-5.0107,-5.0138,-4.9861,-4.9866,-4.987,-5.0065,0,-4.921,-4.9378,-4.9362,-4.9522,-4.9599,-4.9546,-4.963,-4.9668,-4.9675,-4.9741,-4.9747,-4.9823,-4.9755,-4.9777,-4.9844,-4.9854,-4.9959,-4.984,-4.9936,-4.994,-4.9929,-5.0172,-5.0214,-5.0397,-5.009,-5.0094,-5.0097,0,-4.9453,-4.951,-4.9677,-4.9713,-4.9745,-4.9821,-4.9884,-4.9948,-4.999,-4.9989,-5.0032,-5.0004,-5.01,-5.0011,-5.0144,-5.0063,-5.0101,-5.0113,-5.0119,-5.0129,-5.0029,-5.019,-5.0454,-5.0483,-5.0136,-5.0133,-5.013,0,-4.9622,-4.9739,-4.9855,-4.9882,-4.9926,-4.9981,-5.0002,-5.0039,-5.0082,-5.0137,-5.0165,-5.023,-5.0267,-5.0318,-5.0307,-5.0243,-5.0444,-5.0353,-5.0447,-5.0448,-5.0493,-5.0491,-5.077,-5.0516,-5.0515,-5.0515,-5.0514,0,-4.9836,-4.9941,-4.9932,-5.0004,-5.012,-5.01,-5.0215,-5.0229,-5.0263,-5.0336,-5.0294,-5.0363,-5.0344,-5.0413,-5.0405,-5.0518,-5.0534,-5.0537,-5.0534,-5.0542,-5.0542,-5.0568,-5.0556,-5.0522,-5.052,-5.0519,-5.0518,0,-5.0044,-5.0043,-5.0166,-5.0198,-5.0209,-5.0293,-5.0321,-5.0388,-5.0391,-5.0485,-5.0505,-5.0511,-5.0589,-5.0584,-5.0672,-5.0667,-5.0807,-5.0787,-5.0793,-5.079,-5.0885,-5.0877,-5.1191,-5.1232,-5.095,-5.0953,-5.0955,0,-5.0182,-5.0262,-5.0303,-5.0349,-5.0374,-5.0449,-5.0494,-5.0477,-5.0525,-5.0579,-5.064,-5.0715,-5.0775,-5.0903,-5.0915,-5.0982,-5.0966,-5.1071,-5.0976,-5.0981,-5.0969,-5.0965,-5.0974,-5.1091,-5.1094,-5.1096,-5.1099,0,-5.0426,-5.0422,-5.0488,-5.0554,-5.0609,-5.066,-5.0706,-5.0746,-5.0734,-5.079,-5.0871,-5.0917,-5.1008,-5.1083,-5.1148,-5.1169,-5.1133,-5.1128,-5.1154,-5.1164,-5.1165,-5.1167,-5.0846,-5.1122,-5.1119,-5.1118,-5.1116,-5.1115,-5.0605,-5.0674,-5.0714,-5.0789,-5.0823,-5.0867,-5.0933,-5.0945,-5.1012,-5.1085,-5.107,-5.1162,-5.1201,-5.1285,-5.1312,-5.1383,-5.1345,-5.1381,-5.1391,-5.1401,-5.1413,-5.1152,-5.1394,-5.1393,-5.1393,-5.1392,-5.1392,0,-5.0849,-5.0872,-5.0941,-5.1008,-5.1068,-5.1028,-5.1078,-5.113,-5.1211,-5.1251,-5.1311,-5.1404,-5.1477,-5.1494,-5.1564,-5.1618,-5.1603,-5.1637,-5.1634,-5.164,-5.1442,-5.1413,-5.1648,-5.1648,-5.1648,-5.1648,-5.1648,-5.1648,-5.0983,-5.1098,-5.1098,-5.123,-5.1252,-5.1342,-5.1373,-5.1415,-5.1447,-5.1553,-5.1614,-5.1625,-5.1656,-5.1728,-5.1794,-5.1797,-5.1825,-5.1867,-5.1863,-5.1679,-5.1653,-5.1629,-5.1602,-5.1872,-5.1873,-5.2055,-5.2057,-5.2058]}]]